| time (UTC) | temp F | wind direction | speed MPH | gust MPH | rain 1hr in | rain 24hr in | rain mn in | humidity % | barometer mb |
| 20260901233017 | 92 | 203 | 4.0 | 7.0 | 0.00 | 0.00 | 0.00 | 60 | 994.6 |
| 20260901230017 | 94 | 203 | 4.0 | 8.0 | 0.00 | 0.00 | 0.00 | 57 | 994.5 |
| 20260901223037 | 96 | 203 | 4.0 | 10.0 | 0.00 | 0.00 | 0.00 | 51 | 994.6 |
| 20260901220017 | 97 | 203 | 6.0 | 11.0 | 0.00 | 0.00 | 0.00 | 51 | 994.7 |
| 20260901213017 | 97 | 203 | 7.0 | 12.0 | 0.00 | 0.00 | 0.00 | 49 | 994.7 |
| 20260901210016 | 97 | 225 | 6.0 | 11.0 | 0.00 | 0.00 | 0.00 | 50 | 994.9 |
| 20260901203017 | 96 | 225 | 5.0 | 12.0 | 0.00 | 0.00 | 0.00 | 52 | 995.1 |
| 20260901200017 | 96 | 225 | 7.0 | 14.0 | 0.00 | 0.00 | 0.00 | 51 | 995.3 |
| 20260901193057 | 95 | 225 | 9.0 | 15.0 | 0.00 | 0.00 | 0.00 | 51 | 995.6 |
| 20260901190057 | 93 | 225 | 9.0 | 15.0 | 0.00 | 0.00 | 0.00 | 56 | 995.8 |
| 20260901183017 | 92 | 225 | 8.0 | 16.0 | 0.00 | 0.00 | 0.00 | 56 | 995.9 |
| 20260901180017 | 93 | 225 | 7.0 | 13.0 | 0.00 | 0.00 | 0.00 | 58 | 996.2 |
| 20260901173017 | 92 | 225 | 7.0 | 14.0 | 0.00 | 0.00 | 0.00 | 59 | 996.3 |
| 20260901170018 | 91 | 225 | 8.0 | 15.0 | 0.00 | 0.00 | 0.00 | 57 | 996.6 |
| 20260901163017 | 90 | 225 | 8.0 | 15.0 | 0.00 | 0.00 | 0.00 | 59 | 996.6 |
| 20260901160017 | 88 | 225 | 8.0 | 15.0 | 0.00 | 0.00 | 0.00 | 63 | 996.7 |
| 20260901153037 | 87 | 225 | 7.0 | 15.0 | 0.00 | 0.00 | 0.00 | 65 | 996.8 |
| 20260901150017 | 85 | 225 | 6.0 | 12.0 | 0.00 | 0.00 | 0.00 | 67 | 997.0 |
| 20260901143017 | 84 | 203 | 6.0 | 10.0 | 0.00 | 0.00 | 0.00 | 71 | 996.8 |
| 20260901140019 | 81 | 225 | 6.0 | 10.0 | 0.00 | 0.00 | 0.00 | 75 | 996.7 |
| 20260901133017 | 79 | 203 | 6.0 | 10.0 | 0.00 | 0.00 | 0.00 | 80 | 996.8 |
| 20260901130059 | 76 | 203 | 4.0 | 9.0 | 0.00 | 0.00 | 0.00 | 85 | 996.7 |
| 20260901123018 | 74 | 203 | 4.0 | 6.0 | 0.00 | 0.00 | 0.00 | 87 | 996.3 |
| 20260901120017 | 74 | 203 | 4.0 | 8.0 | 0.00 | 0.00 | 0.00 | 88 | 996.1 |
| 20260901113017 | 75 | 203 | 4.0 | 7.0 | 0.00 | 0.00 | 0.00 | 87 | 995.9 |
| 20260901110017 | 75 | 203 | 3.0 | 6.0 | 0.00 | 0.00 | 0.00 | 86 | 995.5 |
| 20260901103017 | 75 | 203 | 4.0 | 6.0 | 0.00 | 0.00 | 0.00 | 86 | 995.5 |
| 20260901100017 | 76 | 180 | 4.0 | 7.0 | 0.00 | 0.00 | 0.00 | 86 | 995.5 |
| 20260901093017 | 76 | 203 | 3.0 | 6.0 | 0.00 | 0.00 | 0.00 | 85 | 995.2 |
| 20260901090017 | 77 | 203 | 4.0 | 7.0 | 0.00 | 0.00 | 0.00 | 84 | 995.3 |
| 20260901083017 | 78 | 203 | 3.0 | 6.0 | 0.00 | 0.00 | 0.00 | 83 | 995.2 |
| 20260901080017 | 79 | 225 | 4.0 | 6.0 | 0.00 | 0.00 | 0.00 | 81 | 995.3 |
| 20260901073017 | 79 | 225 | 4.0 | 8.0 | 0.00 | 0.00 | 0.00 | 81 | 995.4 |
| 20260901070017 | 79 | 203 | 4.0 | 7.0 | 0.00 | 0.00 | 0.00 | 81 | 995.5 |
| 20260901063057 | 79 | 203 | 3.0 | 6.0 | 0.00 | 0.00 | 0.00 | 82 | 995.4 |
| 20260901060017 | 80 | 225 | 4.0 | 6.0 | 0.00 | 0.00 | 0.00 | 81 | 995.3 |
| 20260901053017 | 80 | 203 | 4.0 | 6.0 | 0.00 | 0.00 | 0.00 | 81 | 995.1 |
| 20260901050017 | 80 | 203 | 4.0 | 6.0 | 0.00 | 0.00 | 0.00 | 82 | 995.1 |
| 20260901043036 | 80 | 203 | 3.0 | 6.0 | 0.00 | 0.00 | 0.00 | 82 | 994.9 |
| 20260901040016 | 81 | 203 | 4.0 | 6.0 | 0.00 | 0.00 | 0.00 | 81 | 994.8 |
| 20260901033017 | 81 | 203 | 4.0 | 6.0 | 0.00 | 0.00 | 0.00 | 81 | 994.8 |
| 20260901030016 | 82 | 203 | 4.0 | 6.0 | 0.00 | 0.00 | 0.00 | 80 | 994.8 |
| 20260901023019 | 83 | 203 | 4.0 | 7.0 | 0.00 | 0.00 | 0.00 | 79 | 994.7 |
| 20260901020017 | 83 | 203 | 4.0 | 7.0 | 0.00 | 0.00 | 0.00 | 79 | 994.5 |
| 20260901013019 | 84 | 203 | 4.0 | 5.0 | 0.00 | 0.00 | 0.00 | 78 | 994.3 |
| 20260901010017 | 85 | 203 | 4.0 | 6.0 | 0.00 | 0.00 | 0.00 | 77 | 994.0 |
| 20260901003037 | 86 | 203 | 3.0 | 5.0 | 0.00 | 0.00 | 0.00 | 74 | 993.8 |
| 20260901000017 | 88 | 203 | 3.0 | 6.0 | 0.00 | 0.00 | 0.00 | 71 | 993.8 |